MMA370 VYMD-VTCC

Flight info

Callsign MMA370
Flight time 0h 43m
Altitude 29000
Route DOGIP1S DOGIP DCT DUMER DCT EMTUG DCT DOMKA DCT LAMUN LAMUN2X
Aircraft A320/M-SDE3FGHIRWY/LB1

Departure

Time 2026-04-15 12:28
Airport Mandalay International Airport (VYMD)

Arrival

Time 2026-04-15 13:11
Airport Chiang Mai International Airport (VTCC)
Time Latitude Longitude Altitude Speed Heading
2026-04-15 11:55 21.70626 95.97116 329 ft 0 kts 260°
2026-04-15 12:19 21.70629 95.97140 325 ft 4 kts 264°
2026-04-15 12:19 21.70631 95.97169 325 ft 4 kts 273°
2026-04-15 12:19 21.70626 95.97196 325 ft 4 kts 303°
2026-04-15 12:19 21.70614 95.97208 324 ft 0 kts 351°
2026-04-15 12:21 21.70616 95.97207 324 ft 2 kts 351°
2026-04-15 12:22 21.70646 95.97202 324 ft 7 kts 351°
2026-04-15 12:22 21.70708 95.97191 327 ft 9 kts 351°
2026-04-15 12:22 21.70778 95.97179 327 ft 12 kts 351°
2026-04-15 12:22 21.70842 95.97204 328 ft 10 kts 60°
2026-04-15 12:23 21.70857 95.97276 328 ft 11 kts 81°
2026-04-15 12:23 21.70879 95.97367 325 ft 14 kts 50°
2026-04-15 12:23 21.70971 95.97376 326 ft 14 kts 351°
2026-04-15 12:23 21.71083 95.97356 325 ft 19 kts 351°
2026-04-15 12:24 21.71230 95.97330 325 ft 24 kts 350°
2026-04-15 12:24 21.71405 95.97299 325 ft 26 kts 350°
2026-04-15 12:24 21.71589 95.97267 327 ft 27 kts 351°
2026-04-15 12:24 21.71779 95.97233 327 ft 28 kts 351°
2026-04-15 12:25 21.71940 95.97217 328 ft 16 kts 27°
2026-04-15 12:25 21.71976 95.97304 328 ft 3 kts 79°
2026-04-15 12:25 21.71979 95.97320 328 ft 2 kts 79°
2026-04-15 12:25 21.71981 95.97334 328 ft 3 kts 81°
2026-04-15 12:26 21.71969 95.97390 327 ft 9 kts 126°
2026-04-15 12:26 21.71917 95.97417 325 ft 7 kts 171°
2026-04-15 12:26 21.71902 95.97420 327 ft 0 kts 170°
2026-04-15 12:27 21.71887 95.97423 328 ft 19 kts 170°
2026-04-15 12:27 21.71489 95.97494 324 ft 93 kts 171°
2026-04-15 12:27 21.70662 95.97640 325 ft 148 kts 171°
2026-04-15 12:27 21.69519 95.97854 537 ft 173 kts 168°
2026-04-15 12:28 21.68313 95.98116 1086 ft 177 kts 168°
2026-04-15 12:28 21.67103 95.98365 1739 ft 176 kts 170°
2026-04-15 12:28 21.65922 95.98610 2364 ft 176 kts 171°
2026-04-15 12:28 21.64636 95.98841 2633 ft 196 kts 172°
2026-04-15 12:29 21.63207 95.99087 2829 ft 221 kts 172°
2026-04-15 12:29 21.61630 95.99361 3111 ft 244 kts 172°
2026-04-15 12:29 21.59885 95.99669 3542 ft 261 kts 172°
2026-04-15 12:29 21.58074 95.99995 4276 ft 266 kts 172°
2026-04-15 12:30 21.56237 96.00333 5039 ft 269 kts 172°
2026-04-15 12:30 21.54380 96.00677 5796 ft 272 kts 172°
2026-04-15 12:30 21.52502 96.01024 6534 ft 276 kts 173°
2026-04-15 12:30 21.50607 96.01428 7241 ft 281 kts 168°
2026-04-15 12:31 21.48711 96.02011 7941 ft 286 kts 166°
2026-04-15 12:31 21.46797 96.02650 8645 ft 291 kts 165°
2026-04-15 12:31 21.44854 96.03322 9349 ft 296 kts 165°
2026-04-15 12:31 21.42870 96.04012 9953 ft 305 kts 165°
2026-04-15 12:32 21.40776 96.04735 10147 ft 328 kts 165°
2026-04-15 12:32 21.38534 96.05502 10392 ft 347 kts 165°
2026-04-15 12:32 21.36207 96.06298 10944 ft 354 kts 165°
2026-04-15 12:32 21.33846 96.07105 11583 ft 358 kts 165°
2026-04-15 12:33 21.31461 96.07918 12236 ft 361 kts 166°
2026-04-15 12:33 21.29056 96.08736 12903 ft 365 kts 166°
2026-04-15 12:33 21.26622 96.09564 13499 ft 369 kts 166°
2026-04-15 12:33 21.24164 96.10397 13671 ft 371 kts 166°
2026-04-15 12:34 21.21704 96.11231 13763 ft 372 kts 166°
2026-04-15 12:34 21.19230 96.12069 14346 ft 374 kts 166°
2026-04-15 12:34 21.16735 96.12916 14929 ft 377 kts 166°
2026-04-15 12:34 21.14231 96.13768 15490 ft 380 kts 166°
2026-04-15 12:35 21.11697 96.14627 16041 ft 383 kts 166°
2026-04-15 12:35 21.09148 96.15489 16584 ft 386 kts 166°
2026-04-15 12:35 21.06569 96.16359 17125 ft 390 kts 166°
2026-04-15 12:35 21.03974 96.17235 17663 ft 393 kts 166°
2026-04-15 12:36 21.01352 96.18120 18175 ft 397 kts 166°
2026-04-15 12:36 20.98709 96.19010 18616 ft 400 kts 166°
2026-04-15 12:36 20.96041 96.19909 19069 ft 404 kts 166°
2026-04-15 12:36 20.93347 96.20820 19515 ft 407 kts 166°
2026-04-15 12:37 20.90639 96.21738 19953 ft 411 kts 166°
2026-04-15 12:37 20.87895 96.22666 20395 ft 415 kts 167°
2026-04-15 12:37 20.85132 96.23598 20847 ft 419 kts 167°
2026-04-15 12:37 20.82342 96.24541 21325 ft 422 kts 167°
2026-04-15 12:38 20.79528 96.25492 21769 ft 426 kts 167°
2026-04-15 12:38 20.76746 96.26664 22195 ft 435 kts 157°
2026-04-15 12:38 20.74157 96.28394 22612 ft 445 kts 146°
2026-04-15 12:38 20.71865 96.30671 23010 ft 454 kts 134°
2026-04-15 12:39 20.69973 96.33400 23390 ft 461 kts 126°
2026-04-15 12:39 20.68190 96.36259 23724 ft 464 kts 126°
2026-04-15 12:39 20.66389 96.39131 24116 ft 466 kts 126°
2026-04-15 12:39 20.64584 96.42001 24468 ft 468 kts 126°
2026-04-15 12:40 20.62762 96.44897 24818 ft 470 kts 126°
2026-04-15 12:40 20.60934 96.47798 25162 ft 471 kts 126°
2026-04-15 12:40 20.59104 96.50705 25475 ft 474 kts 126°
2026-04-15 12:40 20.57266 96.53628 25793 ft 476 kts 126°
2026-04-15 12:41 20.55416 96.56571 26126 ft 478 kts 126°
2026-04-15 12:41 20.53559 96.59527 26441 ft 481 kts 126°
2026-04-15 12:41 20.51693 96.62499 26743 ft 482 kts 127°
2026-04-15 12:41 20.49824 96.65471 27055 ft 485 kts 127°
2026-04-15 12:42 20.47939 96.68460 27351 ft 487 kts 127°
2026-04-15 12:42 20.46044 96.71461 27655 ft 489 kts 127°
2026-04-15 12:42 20.44142 96.74474 27932 ft 491 kts 127°
2026-04-15 12:42 20.42232 96.77503 28235 ft 493 kts 127°
2026-04-15 12:43 20.40286 96.80524 28524 ft 494 kts 129°
2026-04-15 12:43 20.38243 96.83476 28786 ft 495 kts 130°
2026-04-15 12:43 20.36141 96.86342 28836 ft 485 kts 132°
2026-04-15 12:44 20.31975 96.91808 28839 ft 474 kts 132°
2026-04-15 12:44 20.27832 96.97295 28846 ft 472 kts 131°
2026-04-15 12:45 20.23815 97.02764 28841 ft 472 kts 130°
2026-04-15 12:45 20.19797 97.08287 28842 ft 471 kts 131°
2026-04-15 12:46 20.15761 97.13774 28826 ft 471 kts 131°
2026-04-15 12:46 20.11704 97.19244 28814 ft 471 kts 131°
2026-04-15 12:47 20.07649 97.24720 28817 ft 471 kts 131°
2026-04-15 12:47 20.03609 97.30205 28786 ft 471 kts 131°
2026-04-15 12:48 19.99569 97.35685 28784 ft 471 kts 131°
2026-04-15 12:48 19.95526 97.41152 28796 ft 470 kts 131°
2026-04-15 12:49 19.91486 97.46604 28808 ft 469 kts 131°
2026-04-15 12:49 19.87445 97.52038 28802 ft 468 kts 131°
2026-04-15 12:50 19.83415 97.57466 28800 ft 467 kts 131°
2026-04-15 12:50 19.79397 97.62882 28781 ft 467 kts 131°
2026-04-15 12:50 19.77389 97.65587 28678 ft 465 kts 131°
2026-04-15 12:51 19.75398 97.68266 28416 ft 460 kts 131°
2026-04-15 12:51 19.73423 97.70920 28083 ft 456 kts 131°
2026-04-15 12:51 19.71459 97.73559 27492 ft 454 kts 131°
2026-04-15 12:51 19.69505 97.76183 26919 ft 452 kts 131°
2026-04-15 12:52 19.67562 97.78792 26363 ft 450 kts 131°
2026-04-15 12:52 19.65623 97.81394 25815 ft 449 kts 130°
2026-04-15 12:52 19.63686 97.83988 25281 ft 447 kts 130°
2026-04-15 12:52 19.61759 97.86567 24739 ft 445 kts 130°
2026-04-15 12:53 19.59845 97.89132 24227 ft 443 kts 130°
2026-04-15 12:53 19.57937 97.91691 23701 ft 441 kts 130°
2026-04-15 12:53 19.56042 97.94229 23150 ft 439 kts 130°
2026-04-15 12:53 19.54149 97.96760 22601 ft 436 kts 130°
2026-04-15 12:54 19.52271 97.99268 22082 ft 434 kts 130°
2026-04-15 12:54 19.50398 98.01771 21592 ft 431 kts 130°
2026-04-15 12:54 19.48593 98.04297 21084 ft 430 kts 127°
2026-04-15 12:54 19.46904 98.06864 20584 ft 429 kts 125°
2026-04-15 12:55 19.45249 98.09526 20069 ft 427 kts 124°
2026-04-15 12:55 19.43663 98.12136 19582 ft 426 kts 124°
2026-04-15 12:55 19.42073 98.14751 19137 ft 422 kts 124°
2026-04-15 12:55 19.40468 98.17348 18755 ft 418 kts 124°
2026-04-15 12:56 19.38878 98.19882 18193 ft 410 kts 125°
2026-04-15 12:56 19.37294 98.22368 17451 ft 402 kts 125°
2026-04-15 12:56 19.35756 98.24767 16993 ft 385 kts 126°
2026-04-15 12:56 19.34280 98.27070 16539 ft 372 kts 125°
2026-04-15 12:57 19.32830 98.29336 16082 ft 371 kts 125°
2026-04-15 12:57 19.31389 98.31598 15646 ft 370 kts 125°
2026-04-15 12:57 19.29952 98.33856 15200 ft 369 kts 125°
2026-04-15 12:57 19.28515 98.36111 14765 ft 369 kts 125°
2026-04-15 12:58 19.27080 98.38356 14317 ft 368 kts 125°
2026-04-15 12:58 19.25649 98.40593 13863 ft 368 kts 125°
2026-04-15 12:58 19.24228 98.42817 13374 ft 359 kts 125°
2026-04-15 12:58 19.22860 98.44975 12919 ft 346 kts 125°
2026-04-15 12:59 19.20284 98.49146 12058 ft 338 kts 124°
2026-04-15 12:59 19.19432 98.50534 11760 ft 339 kts 124°
2026-04-15 12:59 19.18148 98.52624 11318 ft 339 kts 124°
2026-04-15 13:00 19.16864 98.54710 10880 ft 339 kts 124°
2026-04-15 13:00 19.15590 98.56775 10626 ft 333 kts 124°
2026-04-15 13:00 19.13925 98.59466 10248 ft 326 kts 124°
2026-04-15 13:00 19.13089 98.60813 10167 ft 319 kts 124°
2026-04-15 13:01 19.11886 98.62750 10006 ft 311 kts 124°
2026-04-15 13:01 19.10703 98.64654 9720 ft 307 kts 124°
2026-04-15 13:01 19.09528 98.66547 9334 ft 307 kts 124°
2026-04-15 13:01 19.08524 98.68533 8934 ft 308 kts 111°
2026-04-15 13:02 19.07923 98.70684 8840 ft 304 kts 107°
2026-04-15 13:02 19.07329 98.72836 8773 ft 304 kts 107°
2026-04-15 13:02 19.06730 98.74954 8556 ft 297 kts 107°
2026-04-15 13:02 19.06143 98.77013 8472 ft 288 kts 107°
2026-04-15 13:03 19.05580 98.78998 8354 ft 277 kts 107°
2026-04-15 13:03 19.05134 98.80916 8382 ft 264 kts 96°
2026-04-15 13:03 19.05057 98.82870 8039 ft 265 kts 90°
2026-04-15 13:03 19.05055 98.84820 7642 ft 266 kts 89°
2026-04-15 13:04 19.05059 98.86753 7254 ft 260 kts 89°
2026-04-15 13:04 19.05063 98.88636 6895 ft 253 kts 90°
2026-04-15 13:04 19.05066 98.90471 6550 ft 247 kts 90°
2026-04-15 13:04 19.05065 98.92240 6191 ft 241 kts 90°
2026-04-15 13:05 19.04993 98.93992 5874 ft 231 kts 104°
2026-04-15 13:05 19.04276 98.95435 5517 ft 217 kts 139°
2026-04-15 13:05 19.03050 98.96220 5286 ft 200 kts 169°
2026-04-15 13:05 19.01726 98.96345 5100 ft 186 kts 185°
2026-04-15 13:06 19.00456 98.96342 4908 ft 178 kts 185°
2026-04-15 13:06 18.99229 98.96340 4736 ft 181 kts 185°
2026-04-15 13:06 18.97904 98.96333 4546 ft 196 kts 185°
2026-04-15 13:06 18.96529 98.96330 4336 ft 198 kts 185°
2026-04-15 13:07 18.95155 98.96328 4131 ft 196 kts 185°
2026-04-15 13:07 18.93817 98.96328 3930 ft 195 kts 185°
2026-04-15 13:07 18.92457 98.96326 3734 ft 195 kts 185°
2026-04-15 13:07 18.91114 98.96324 3532 ft 182 kts 185°
2026-04-15 13:08 18.89936 98.96328 3353 ft 162 kts 185°
2026-04-15 13:08 18.88850 98.96329 3141 ft 152 kts 186°
2026-04-15 13:08 18.87812 98.96328 2946 ft 148 kts 188°
2026-04-15 13:08 18.86788 98.96325 2745 ft 147 kts 188°
2026-04-15 13:09 18.85771 98.96320 2547 ft 146 kts 188°
2026-04-15 13:09 18.84752 98.96316 2354 ft 146 kts 188°
2026-04-15 13:09 18.83744 98.96313 2162 ft 146 kts 186°
2026-04-15 13:09 18.82725 98.96311 1975 ft 145 kts 185°
2026-04-15 13:10 18.81720 98.96307 1791 ft 144 kts 184°
2026-04-15 13:10 18.80721 98.96303 1592 ft 143 kts 184°
2026-04-15 13:10 18.79716 98.96302 1379 ft 146 kts 182°
2026-04-15 13:10 18.78708 98.96293 1157 ft 145 kts 182°
2026-04-15 13:11 18.77708 98.96293 1044 ft 141 kts 183°
2026-04-15 13:11 18.76855 98.96288 1032 ft 99 kts 180°
2026-04-15 13:11 18.76322 98.96286 1032 ft 63 kts 180°
2026-04-15 13:11 18.76025 98.96286 1032 ft 39 kts 180°
2026-04-15 13:12 18.75761 98.96286 1032 ft 37 kts 179°
2026-04-15 13:12 18.75549 98.96305 1032 ft 11 kts 136°
2026-04-15 13:12 18.75544 98.96350 1032 ft 12 kts 89°
2026-04-15 13:12 18.75544 98.96450 1032 ft 13 kts 90°
2026-04-15 13:13 18.75590 98.96513 1032 ft 11 kts 13°
2026-04-15 13:13 18.75661 98.96515 1032 ft 12 kts
2026-04-15 13:13 18.75783 98.96516 1032 ft 22 kts
2026-04-15 13:13 18.75940 98.96516 1032 ft 23 kts 360°
2026-04-15 13:14 18.76107 98.96516 1032 ft 20 kts
2026-04-15 13:14 18.76187 98.96558 1032 ft 13 kts 73°
2026-04-15 13:14 18.76224 98.96627 1032 ft 11 kts 20°
2026-04-15 13:14 18.76292 98.96632 1032 ft 9 kts
2026-04-15 13:15 18.76352 98.96632 1032 ft 10 kts 360°
2026-04-15 13:15 18.76429 98.96632 1032 ft 10 kts
2026-04-15 13:15 18.76496 98.96633 1032 ft 9 kts 360°
2026-04-15 13:15 18.76566 98.96633 1032 ft 10 kts
2026-04-15 13:16 18.76626 98.96646 1032 ft 8 kts
2026-04-15 13:16 18.76688 98.96647 1032 ft 11 kts 360°
2026-04-15 13:16 18.76751 98.96647 1032 ft 1 kts
2026-04-15 13:16 18.76777 98.96652 1032 ft 10 kts 32°
2026-04-15 13:17 18.76778 98.96713 1032 ft 7 kts 88°
2026-04-15 13:17 18.76778 98.96735 1032 ft 0 kts 89°